Theta_e
318 313 311 311 310 309 309 311 312 311 315 318 316 319 328 326 318 323 338 339 328 326 339 346 340 337 337 336 335 334 333 333 334 335 336 336 335 333 333 331 330 329 328 326 325 324 323 322 320 319 318 317 317 316 315 315 315 315 315 314 314 313 312 311 311 310 309 308 307 307 306 304 303 303 303 302 302 302 299 295 293 293 295 297 300 301 302
319 315 313 312 309 309 310 311 311 311 316 320 317 323 333 326 320 329 337 337 335 335 340 340 335 335 336 335 334 334 334 334 335 336 336 335 335 333 332 331 330 329 328 326 325 324 323 321 320 319 318 317 316 315 314 314 314 314 314 314 313 312 311 311 311 309 308 307 306 306 305 303 303 302 302 302 302 300 296 293 293 294 296 297 300 301 301
319 320 320 315 309 311 312 310 311 313 316 318 315 323 329 322 323 336 336 336 341 338 336 336 336 338 338 335 333 334 334 334 335 335 336 335 334 333 332 331 330 329 328 327 325 324 322 321 320 319 318 317 316 315 314 313 313 314 313 313 312 311 310 311 310 309 307 307 306 305 304 303 303 302 302 302 301 299 295 293 294 295 296 298 299 300 300
320 324 321 314 311 313 311 309 312 314 317 320 319 323 326 323 330 339 332 334 342 339 333 335 337 338 339 335 334 333 332 334 335 335 335 335 333 333 332 331 330 329 328 327 325 324 323 321 320 319 318 317 316 315 314 313 313 313 312 312 311 310 310 310 309 308 307 306 305 304 304 303 303 302 302 302 301 298 294 293 294 295 296 297 298 299 300
319 324 323 317 313 312 312 316 318 314 318 327 323 319 323 327 336 341 334 333 341 337 333 338 339 336 337 336 333 333 332 333 334 335 335 334 333 332 331 330 330 329 328 326 325 324 322 321 320 319 318 317 316 315 314 313 313 312 312 311 310 309 309 309 308 307 306 305 305 304 304 303 303 302 302 301 301 298 294 293 294 295 296 297 298 298 299
318 326 326 319 313 316 321 327 324 316 317 324 322 320 327 331 333 337 334 333 336 334 336 343 342 335 335 335 332 331 332 332 333 334 334 334 333 332 331 330 329 329 327 326 325 324 323 322 320 319 318 317 316 315 313 313 312 312 311 310 309 309 308 308 308 306 306 305 305 304 303 303 302 302 301 301 299 296 293 293 294 295 296 297 297 298 298
319 329 328 316 316 326 331 327 323 323 322 322 324 326 330 331 331 333 335 335 338 336 335 336 336 334 336 336 332 331 331 331 332 333 333 333 333 332 331 330 329 328 327 326 325 324 323 322 320 319 318 317 316 314 313 312 311 311 310 309 308 308 307 307 306 306 305 305 304 304 303 302 302 301 301 300 298 294 292 293 294 295 295 296 296 297 297
315 324 326 323 323 326 326 321 318 321 320 319 321 320 321 327 330 332 336 338 336 332 330 333 336 337 338 337 334 333 332 331 331 332 332 332 332 332 331 330 329 328 326 325 325 323 323 321 320 319 317 316 315 313 312 312 311 310 310 309 308 307 306 306 306 305 305 304 304 303 302 302 301 301 301 299 295 293 292 293 293 294 294 295 295 296 296
318 323 327 332 330 324 324 324 321 321 319 317 320 320 321 328 330 330 332 335 334 332 333 335 338 339 339 338 335 333 332 331 330 330 330 330 330 330 330 329 328 328 326 326 325 323 322 321 319 318 317 316 315 313 312 311 311 310 309 308 307 307 306 306 305 305 305 304 304 303 302 301 301 301 300 297 293 292 292 292 292 292 292 292 293 293 293
322 329 330 332 331 328 331 334 330 327 323 320 319 318 320 326 329 328 328 330 336 337 336 335 338 340 342 344 341 335 332 331 330 330 330 329 328 327 327 327 327 327 326 325 324 323 322 320 319 318 317 316 314 313 312 311 310 310 309 308 307 306 306 306 305 305 305 305 304 303 302 302 302 301 298 295 292 291 291 291 291 291 291 290 290 290 291
322 332 333 326 324 326 330 333 330 324 322 321 317 314 321 329 331 327 325 329 336 340 338 336 338 341 348 353 346 336 331 331 330 330 331 330 326 325 326 327 326 326 325 324 323 322 321 319 319 317 316 315 314 312 311 311 310 309 308 308 307 306 306 306 305 305 305 305 304 303 302 302 302 300 297 294 292 291 291 290 290 290 290 290 290 290 290
323 329 327 320 321 323 323 327 328 323 321 320 314 316 330 339 335 328 327 331 335 336 337 336 336 340 348 350 343 335 330 330 329 329 330 329 326 325 325 326 326 325 325 323 322 321 320 319 318 317 316 314 313 312 311 310 309 309 308 308 307 307 306 305 305 305 305 305 304 304 303 302 302 301 297 294 292 292 292 291 290 290 290 290 290 291 291
325 324 318 316 321 322 320 325 329 324 320 319 319 327 334 336 333 328 328 332 332 332 336 338 337 338 339 338 337 332 329 329 329 327 326 325 325 324 324 325 325 324 323 323 321 321 320 319 317 316 315 314 312 311 310 309 309 309 308 308 307 307 306 306 305 305 305 305 305 304 303 303 302 300 298 296 295 295 295 294 292 291 291 292 293 293 293
321 325 323 318 319 320 320 326 327 321 319 323 331 332 327 326 330 328 328 331 330 330 335 336 335 336 335 337 338 333 328 329 330 328 325 323 324 324 323 323 324 322 322 322 321 320 319 318 317 316 315 314 312 311 310 309 309 309 308 308 307 307 306 306 305 305 304 304 304 304 303 303 302 300 298 298 298 298 299 298 296 292 291 293 295 295 295
318 326 326 320 319 321 322 324 323 319 319 327 335 333 326 327 332 332 333 334 329 330 338 338 334 334 336 339 340 334 328 328 328 326 325 325 323 321 320 321 322 322 321 320 320 320 318 317 316 316 315 313 312 311 310 309 309 308 308 308 307 307 306 306 305 304 304 304 304 303 303 303 303 301 299 298 299 300 300 301 299 296 293 293 295 296 296
322 326 326 325 325 325 323 323 323 323 323 324 331 335 332 331 333 336 339 336 327 328 338 340 333 331 332 335 337 333 329 327 327 325 324 323 321 319 319 320 321 321 320 319 319 318 317 316 316 315 315 313 311 310 310 309 309 308 307 307 307 306 306 305 304 304 304 303 303 303 303 303 303 302 301 299 300 300 301 301 300 298 296 295 295 296 297
321 322 327 330 327 325 323 324 325 328 327 324 328 336 336 333 334 335 336 337 334 328 327 329 330 330 330 332 333 332 329 327 326 325 323 321 320 319 319 320 320 320 320 319 317 316 315 315 315 314 314 313 311 310 310 309 308 308 307 306 306 305 305 304 304 304 303 303 303 303 303 303 303 302 301 300 300 300 301 301 300 300 299 297 295 296 297
320 320 323 325 325 327 328 326 324 326 328 327 329 335 333 331 332 333 333 338 342 334 325 326 332 332 331 333 333 329 327 325 324 323 322 320 318 318 319 318 319 319 319 317 315 314 313 313 314 314 314 313 312 310 309 308 308 307 306 306 305 305 304 304 304 303 303 302 302 303 303 303 303 302 302 301 301 300 301 301 300 300 300 298 296 296 297
327 329 329 327 326 328 330 330 328 326 326 326 327 330 330 329 332 335 334 336 340 336 330 333 337 333 329 332 333 328 325 324 323 323 322 319 317 317 318 317 318 318 317 315 314 312 311 312 313 313 313 313 312 310 309 308 307 306 306 305 305 304 304 303 303 303 302 302 302 302 302 302 302 302 302 302 302 301 301 301 301 301 299 297 296 297 297
329 331 332 332 329 326 328 331 329 326 325 326 326 325 326 327 329 330 329 331 336 336 334 336 339 336 330 329 330 328 324 322 322 321 320 317 315 316 317 317 317 317 315 314 313 312 311 311 312 312 312 312 311 309 308 307 306 305 305 305 304 304 303 303 302 302 302 302 302 301 302 302 302 302 302 301 302 302 301 300 300 300 298 297 297 298 298
327 326 327 329 326 325 327 329 327 327 327 327 326 325 326 330 332 332 330 327 329 333 334 334 337 339 333 326 326 326 322 320 320 319 317 315 315 316 316 316 316 316 315 313 312 311 311 311 311 312 311 311 310 309 307 306 306 305 304 304 304 303 302 302 302 302 301 302 302 301 301 301 302 302 302 302 302 301 299 297 297 297 297 297 298 299 299
332 331 331 329 327 328 329 326 325 327 326 326 327 329 331 332 334 337 338 331 325 326 327 327 334 341 333 324 324 325 321 319 319 317 315 315 315 315 315 315 316 315 314 313 312 311 311 311 311 311 310 310 309 308 307 306 305 305 304 303 303 302 302 301 301 301 301 301 301 301 301 301 301 301 301 301 301 298 295 294 295 296 297 298 299 299 299
335 333 334 331 329 331 329 325 325 326 324 327 330 329 328 329 330 335 341 339 334 331 326 320 326 338 334 324 322 323 320 316 316 315 314 314 314 313 314 315 314 314 313 312 312 311 310 310 310 310 310 309 308 307 306 305 305 305 304 303 302 301 301 301 301 301 301 301 301 301 301 301 300 300 300 300 300 298 294 293 294 296 298 299 299 299 299
327 328 331 330 328 326 324 324 326 324 321 325 328 326 325 327 327 329 335 338 338 338 333 322 318 325 329 323 320 324 322 315 312 313 314 314 313 313 314 314 313 313 312 311 311 310 310 310 310 309 308 308 307 306 305 305 305 305 304 303 302 301 301 301 301 301 301 301 300 300 300 300 300 300 299 299 299 299 298 297 297 298 299 299 299 299 299
322 325 329 327 325 324 322 323 324 323 323 326 326 324 324 325 327 330 334 337 336 336 338 333 320 316 320 320 316 318 318 313 311 313 314 313 313 313 313 314 313 313 312 311 311 310 309 309 309 308 307 307 306 306 305 305 304 304 304 303 302 301 301 301 301 300 300 300 300 300 300 299 299 300 300 299 298 298 298 299 299 299 300 299 300 299 299
321 323 325 324 322 322 324 325 323 322 325 325 324 323 322 321 324 327 326 327 327 325 331 336 325 314 315 315 312 312 314 312 312 313 312 311 312 312 313 314 313 312 312 311 310 310 309 309 309 308 307 306 306 306 305 305 304 304 304 304 303 302 301 301 300 300 300 300 300 300 300 299 299 300 299 299 298 298 298 298 298 299 299 299 299 299 299
320 322 325 325 324 323 323 324 322 320 322 325 327 326 319 312 314 317 315 314 315 312 313 318 318 314 314 313 311 312 313 311 311 312 311 311 312 312 313 314 313 312 312 311 310 309 309 308 308 307 307 306 306 306 305 304 304 304 304 303 302 301 301 301 300 300 300 300 300 300 299 299 299 300 299 299 298 298 298 298 298 298 299 299 299 300 300
320 322 325 328 330 327 322 320 320 320 322 324 324 322 317 314 317 323 324 322 320 316 312 311 311 314 317 314 311 312 313 311 310 311 310 311 312 313 313 313 312 312 311 310 309 309 309 308 308 307 307 306 306 305 305 304 303 303 302 302 301 301 301 301 301 300 300 300 300 300 300 300 300 300 299 299 298 299 299 299 299 299 299 300 300 300 300
322 323 326 329 330 328 322 318 319 322 321 318 317 319 322 323 325 327 328 326 325 326 321 312 310 314 315 312 311 313 314 313 312 311 310 311 312 312 313 312 311 311 310 309 308 308 308 308 308 307 306 306 306 305 304 303 303 303 302 302 301 301 300 301 300 300 300 300 300 300 300 300 300 299 299 299 299 299 299 299 299 299 300 300 300 299 299
321 320 322 325 324 323 322 321 322 324 323 321 323 326 326 326 324 324 324 324 326 329 323 313 311 313 312 309 310 311 312 313 312 311 311 312 312 312 312 311 310 308 308 308 308 308 308 308 307 307 307 306 305 304 303 303 303 302 302 302 301 301 301 301 300 300 300 299 300 300 300 299 299 299 299 299 299 299 299 299 299 300 300 300 300 299 299
321 318 320 322 322 323 325 325 323 321 321 323 326 325 324 325 324 321 322 324 326 326 324 319 316 313 309 309 311 312 311 312 312 311 311 312 311 311 312 311 309 307 306 306 306 306 307 308 308 308 307 306 304 303 303 302 302 302 301 301 301 301 301 301 300 300 300 299 299 299 299 299 299 299 299 299 299 299 299 299 299 300 300 300 299 299 300
320 318 318 319 321 323 325 324 322 320 320 321 322 320 320 321 319 317 321 326 323 320 323 325 319 310 306 308 312 313 312 312 311 311 311 311 311 311 311 311 310 309 308 308 307 306 305 305 305 306 306 305 304 303 303 302 302 301 301 301 300 300 300 300 300 300 300 300 300 299 299 299 299 298 299 299 299 299 299 299 299 300 300 300 300 300 300
323 322 319 319 319 320 321 321 321 321 319 317 318 319 319 319 320 322 323 321 317 318 322 320 311 305 306 309 311 310 310 310 310 309 309 309 310 311 311 311 311 309 309 310 310 307 306 306 306 305 305 304 304 303 303 302 302 301 301 301 300 300 300 300 300 300 299 299 299 299 299 299 299 299 299 299 299 299 299 299 300 300 300 300 300 300 299
322 323 322 321 321 321 322 323 324 323 320 318 318 318 319 321 324 324 319 314 316 320 318 310 305 305 307 309 308 307 308 311 312 309 307 307 309 310 309 309 310 309 309 309 309 307 307 308 309 308 306 304 303 302 302 301 301 301 301 300 300 300 300 299 299 299 299 299 299 299 299 299 299 299 299 299 299 299 299 299 300 300 300 300 300 300 299
320 321 321 321 321 322 325 327 326 324 322 319 317 318 319 317 314 314 312 310 313 313 307 303 305 307 306 306 306 305 306 309 310 307 306 307 308 308 308 309 309 309 308 308 308 307 308 308 308 308 306 304 303 301 300 301 301 301 301 300 300 300 300 300 299 299 299 299 299 299 299 299 299 299 299 299 299 299 299 300 300 300 300 300 300 300 300
319 322 324 322 320 322 325 325 324 324 324 322 322 324 322 312 305 308 310 308 307 307 305 304 306 305 303 303 304 303 304 307 307 306 307 308 308 307 308 308 308 307 307 307 307 307 307 307 306 305 304 303 302 301 301 302 302 301 301 300 300 300 300 299 299 299 299 299 299 299 299 299 299 299 299 299 299 299 299 300 300 300 300 300 300 300 300
312 319 328 328 324 325 324 317 312 312 315 316 318 320 319 309 303 305 308 306 305 306 306 305 305 303 301 302 304 304 305 306 306 307 307 307 307 307 307 306 306 306 305 305 306 306 306 306 305 304 303 303 302 302 302 302 302 301 301 300 300 300 300 299 299 299 299 299 299 299 299 299 299 299 299 299 299 299 299 300 300 300 300 300 300 300 300
307 309 315 315 313 313 313 308 304 304 308 312 311 309 309 307 305 305 306 305 305 306 306 305 304 303 302 303 304 304 304 304 305 306 306 305 305 306 305 304 305 305 304 305 306 305 304 304 304 303 303 302 302 302 302 302 301 301 301 300 300 300 300 299 299 299 299 299 299 299 299 299 299 299 299 299 299 299 299 300 300 300 300 301 300 300 300
312 309 307 306 304 303 303 303 303 304 308 313 311 306 305 306 307 306 306 305 306 306 307 306 305 304 303 302 302 302 303 304 305 305 304 304 304 304 304 304 305 305 305 305 306 305 304 304 303 302 302 302 302 302 303 302 301 301 301 300 300 300 300 299 299 299 299 299 299 299 299 299 299 299 299 299 299 299 299 299 299 300 300 300 299 299 300
321 317 312 310 310 307 306 308 307 304 305 309 309 307 306 307 306 305 305 305 306 308 308 308 308 306 303 301 301 302 304 304 304 304 304 303 303 303 303 303 304 304 304 305 305 305 305 304 303 302 302 302 302 302 302 302 301 301 300 300 300 300 299 299 300 300 300 300 300 300 299 299 299 299 299 299 299 299 299 299 299 299 300 299 299 300 300
317 311 309 311 311 307 307 310 308 305 306 309 308 308 309 309 307 306 306 305 306 308 308 308 309 309 306 304 304 304 304 304 304 304 304 303 302 301 302 303 303 303 304 304 304 305 305 304 303 303 302 302 302 302 302 302 301 301 300 300 300 300 300 300 300 301 301 301 300 300 299 299 299 299 299 299 299 299 299 299 299 299 300 300 300 300 300
312 308 311 317 314 305 302 305 308 308 309 310 308 309 310 310 309 309 308 307 308 308 308 308 309 308 307 306 305 304 303 303 303 303 303 303 303 302 302 303 303 303 303 303 304 304 304 304 303 303 303 302 302 302 302 301 301 300 300 301 300 300 300 300 301 301 302 301 300 300 299 299 299 299 298 298 299 299 299 300 300 300 300 300 300 300 300
311 309 313 315 310 303 301 303 306 308 309 308 308 310 310 310 309 310 309 307 308 309 308 308 308 308 307 306 305 304 303 303 303 302 302 303 303 303 303 303 303 303 303 303 303 304 304 303 303 303 303 303 302 302 302 301 301 300 300 300 300 300 300 301 301 301 301 300 300 300 299 299 299 299 299 299 300 300 301 301 302 301 301 300 300 300 300
303 302 305 305 303 302 303 304 305 309 310 309 308 310 310 309 310 310 310 309 310 309 309 308 307 307 307 306 305 305 304 303 303 303 302 302 302 303 303 303 303 303 302 303 303 303 303 303 303 302 302 302 302 302 302 301 301 301 300 301 300 301 301 301 301 301 301 300 300 300 300 300 300 300 300 301 301 302 302 302 302 301 301 300 300 300 300
300 300 303 303 302 303 303 304 307 310 311 309 308 308 309 309 309 310 310 310 310 309 309 308 308 307 307 307 306 307 306 306 305 304 303 303 305 305 304 303 304 303 303 302 303 303 303 303 302 302 302 302 302 302 301 301 301 301 300 300 301 301 301 301 301 301 300 300 300 300 300 300 300 300 301 301 301 302 301 301 301 301 301 300 300 300 300
303 303 304 304 304 303 304 305 306 307 307 307 308 308 308 309 309 309 310 310 310 309 308 308 308 308 308 307 307 306 306 305 305 305 304 305 306 306 304 304 304 304 303 303 303 302 302 303 302 302 302 302 302 302 301 301 301 301 301 301 301 301 301 301 301 301 301 301 301 300 300 300 300 300 300 300 301 301 301 301 301 301 301 301 301 300 300
303 303 304 305 304 304 305 305 305 305 307 310 311 310 309 308 309 309 309 309 310 309 308 308 308 308 308 308 307 307 305 305 305 305 304 304 305 305 305 305 304 304 303 303 303 302 302 302 302 302 302 302 301 301 301 301 301 301 301 301 301 301 301 301 301 301 301 301 300 300 300 300 300 300 300 300 301 301 301 301 301 301 301 301 301 301 301
304 303 304 304 305 305 305 304 304 306 308 310 310 309 308 308 308 308 308 309 309 309 308 308 308 308 308 308 307 307 306 306 305 305 305 304 304 304 305 305 304 304 304 303 303 303 302 302 302 302 302 301 301 302 302 301 301 301 301 301 302 302 302 301 301 301 301 300 300 299 299 299 299 300 300 301 301 301 301 301 301 301 300 301 301 301 301
304 303 303 303 303 304 303 303 303 306 308 307 306 306 307 307 307 307 308 308 308 308 308 308 307 307 307 307 307 307 307 307 306 306 305 305 304 304 305 305 304 304 304 303 303 303 303 302 302 302 301 301 301 301 301 301 302 302 302 302 302 302 301 301 301 301 300 299 299 299 299 299 299 300 300 301 301 301 301 301 301 301 300 301 301 301 301
302 302 302 301 300 301 300 300 300 302 303 303 303 305 306 306 307 308 308 308 308 308 308 308 308 308 308 308 308 307 307 307 306 306 306 305 305 305 305 305 305 305 304 304 304 304 303 303 302 302 301 301 301 301 301 301 302 302 302 302 302 302 301 301 301 300 300 299 299 299 299 299 300 300 301 301 301 301 301 301 301 300 301 301 301 301 300
298 299 300 300 300 299 299 298 298 299 300 301 302 304 304 305 306 307 308 307 307 307 307 307 308 308 308 308 308 308 308 307 307 307 306 306 305 305 305 305 305 305 304 304 304 304 304 303 303 303 302 302 301 301 301 301 301 301 302 302 301 301 300 300 300 300 300 300 300 300 300 300 300 301 301 301 301 301 301 301 301 301 301 301 301 301 300
295 296 297 298 298 297 296 296 297 297 298 299 300 301 302 303 304 304 304 304 304 304 304 305 306 307 307 308 308 308 307 307 307 307 307 306 306 306 305 305 305 305 305 304 304 304 304 304 304 303 303 303 302 302 302 301 301 301 302 302 301 300 300 300 300 301 301 301 301 301 301 301 301 301 301 301 301 301 301 301 301 301 300 300 301 301 300
Wind_Speed
9 8 7 7 11 12 10 10 11 9 9 11 10 8 7 8 8 7 8 8 9 10 9 10 11 8 7 8 8 8 9 10 11 11 13 12 12 13 14 14 15 16 15 13 15 19 22 23 24 25 27 28 28 26 27 30 33 33 32 31 30 29 29 29 30 30 30 29 28 28 28 28 28 26 23 20 17 14 11 11 12 14 16 18 19 19 18
10 6 6 8 10 10 10 11 13 12 11 12 11 8 6 8 7 7 6 9 11 10 8 8 7 4 2 3 6 9 11 12 12 13 14 13 13 14 15 16 16 16 16 15 16 19 21 23 24 24 25 27 28 26 26 29 32 33 33 32 31 31 30 30 31 31 30 30 30 29 29 29 28 26 23 20 17 14 12 13 14 15 16 18 19 19 19
7 3 2 6 9 11 10 9 10 12 13 11 8 4 3 4 4 4 4 6 9 8 4 4 4 6 7 7 9 10 12 14 14 14 14 13 14 14 15 15 15 15 15 14 15 18 21 23 25 25 25 27 28 27 27 28 31 33 33 32 32 32 32 32 32 32 31 31 31 30 30 29 28 26 23 20 17 15 14 15 16 16 17 17 18 18 18
6 4 3 3 5 8 9 7 8 10 11 9 6 4 5 7 6 4 5 5 7 7 3 3 4 7 9 10 10 10 10 13 15 15 15 15 15 15 15 15 15 15 15 15 16 19 22 25 26 26 27 27 27 28 29 29 31 33 33 32 32 32 33 33 33 33 32 32 31 30 29 28 27 26 23 21 18 15 15 16 17 17 17 17 18 18 17
6 4 4 3 6 7 3 6 10 11 8 6 5 3 5 7 7 7 6 6 7 5 5 5 5 8 10 10 12 12 11 13 14 15 16 16 16 16 16 16 16 16 16 17 20 23 25 27 29 29 30 29 29 30 32 32 33 34 33 32 31 32 33 35 34 33 32 32 31 31 30 29 28 27 24 21 19 16 16 17 18 18 18 18 18 17 16
4 5 6 3 6 5 6 6 7 9 7 8 9 5 7 8 6 4 4 5 5 5 8 9 10 9 7 7 9 10 12 13 14 14 14 15 15 15 15 15 15 14 14 17 22 25 27 28 29 30 30 30 29 30 31 31 33 33 32 31 31 31 33 34 34 34 33 33 32 32 31 31 30 27 24 21 19 17 17 18 19 19 19 18 18 17 16
2 4 6 4 4 6 7 4 1 4 3 7 9 4 5 9 7 5 5 7 7 6 5 5 7 6 3 4 6 8 9 12 14 14 14 14 14 13 13 14 13 13 14 18 22 25 27 28 28 29 29 29 28 28 29 30 30 29 29 29 29 30 31 32 33 34 34 34 34 33 32 31 30 27 24 21 19 18 18 18 19 19 19 18 17 16 15
0 3 3 4 6 6 4 4 2 2 3 4 7 2 5 8 9 7 7 7 5 4 2 1 5 5 5 6 5 6 8 9 11 14 14 15 16 16 16 16 17 19 22 25 26 27 28 29 29 29 29 30 29 29 29 30 29 29 29 28 28 30 31 32 33 34 34 34 33 33 32 32 30 28 25 21 20 19 19 19 19 18 18 17 16 15 14
2 2 1 2 2 3 2 1 1 3 4 4 5 3 5 8 7 8 6 4 3 6 2 2 6 6 7 5 0 5 9 10 11 11 12 13 14 14 15 16 19 22 25 26 26 26 27 28 29 30 30 31 31 30 29 29 28 28 28 29 30 31 32 33 33 34 34 34 33 33 33 32 31 28 25 23 21 21 21 21 20 19 17 16 15 14 14
2 4 0 2 3 1 4 6 5 2 4 5 4 4 4 7 6 7 6 3 4 7 5 5 6 6 6 1 5 7 9 10 10 9 8 9 10 11 13 16 18 21 23 24 26 28 28 28 29 30 31 31 30 29 29 29 29 28 28 29 30 32 33 34 35 35 35 35 34 34 33 32 31 29 26 25 23 23 22 22 21 19 18 17 16 14 13
1 4 3 1 2 2 5 7 7 4 4 5 4 4 3 7 6 6 6 5 6 7 7 7 6 6 4 5 6 6 11 11 11 10 9 9 11 14 18 21 22 24 26 27 28 29 28 28 29 31 32 32 31 29 29 30 29 29 29 31 32 33 34 35 35 35 35 34 34 34 33 33 32 30 28 26 25 24 22 21 21 20 19 18 17 15 14
1 3 2 1 2 2 3 6 7 4 2 5 6 4 6 7 5 5 6 7 7 8 8 6 5 5 5 6 5 6 11 10 10 11 11 11 13 15 19 22 24 26 27 28 28 29 29 30 32 33 33 32 31 30 30 30 30 30 31 33 33 34 34 34 35 35 34 34 34 35 34 34 33 31 30 28 27 25 22 20 20 20 19 19 18 17 15
2 3 2 1 3 3 4 6 6 2 3 6 5 6 7 4 3 4 6 7 7 8 9 7 5 4 4 2 1 6 10 10 9 9 10 14 16 18 22 26 27 28 28 29 29 29 30 32 33 35 34 31 29 29 29 30 30 31 32 33 33 33 33 34 34 34 34 35 35 34 34 34 33 32 31 30 28 26 23 20 20 20 19 19 18 17 15
2 2 2 1 3 3 4 5 4 1 2 2 3 6 5 2 2 2 4 6 6 7 8 7 6 4 1 2 4 6 9 9 9 8 10 13 15 17 21 26 28 27 25 26 27 27 28 32 34 34 34 31 28 28 28 29 30 30 31 32 33 33 33 34 34 34 34 34 34 33 33 34 34 34 33 31 29 26 24 22 20 20 20 19 18 16 13
2 3 3 2 1 3 3 3 2 2 2 4 5 3 2 2 2 1 3 5 6 6 7 7 6 3 1 4 5 6 7 7 8 9 10 12 13 16 20 24 27 28 25 24 26 27 29 33 34 34 33 29 27 28 28 29 29 30 31 33 33 33 33 33 33 34 34 33 32 33 33 33 33 34 33 32 29 27 26 24 21 20 20 19 18 16 14
3 3 1 2 4 4 4 1 1 1 3 4 4 2 1 2 2 1 2 3 6 7 6 5 3 1 2 3 4 5 6 7 7 8 9 10 12 16 20 24 28 30 26 24 25 27 30 32 33 34 33 29 27 27 27 28 30 30 31 32 33 32 32 32 33 33 32 31 32 33 33 33 33 33 34 33 31 28 27 24 22 21 21 20 19 17 15
3 4 5 5 4 4 4 1 3 4 4 2 4 4 1 3 2 1 2 1 3 6 5 2 1 1 1 2 5 5 5 7 8 8 9 11 13 16 19 24 28 28 27 26 26 26 29 32 32 33 33 31 29 27 27 29 31 32 32 33 33 32 32 32 32 31 30 31 32 32 33 33 32 32 33 33 31 29 28 26 24 23 22 22 21 19 17
1 2 3 3 3 4 4 3 3 4 1 1 3 3 4 2 2 2 2 2 3 2 4 3 2 3 5 5 5 5 6 6 6 7 7 10 14 17 19 21 23 24 24 25 25 25 26 29 31 30 31 31 31 29 29 31 33 33 34 34 32 31 31 31 30 30 30 30 31 31 32 32 32 32 33 32 31 30 29 26 25 24 23 23 22 21 19
1 1 2 3 3 4 5 5 3 1 3 2 1 3 3 1 2 2 2 2 1 2 4 4 4 3 4 6 5 5 7 7 7 7 7 9 12 15 18 20 23 24 23 23 23 24 24 26 29 29 29 30 30 30 31 33 34 34 35 34 32 31 30 30 29 30 30 30 30 30 31 31 31 31 31 31 31 31 29 27 26 25 24 24 23 22 20
1 3 6 5 4 5 5 2 1 2 4 5 4 3 2 3 2 1 0 1 2 2 2 2 1 2 1 4 5 5 5 6 7 7 8 9 12 15 18 22 23 22 20 21 23 24 25 27 29 30 29 28 27 29 32 33 34 34 34 34 32 31 30 30 30 30 31 31 31 31 31 31 31 31 31 31 32 31 31 30 29 28 27 26 25 23 21
1 3 5 3 2 4 5 2 1 2 2 3 4 3 3 4 4 4 4 3 1 2 2 3 3 3 2 2 5 5 5 5 6 7 8 12 15 18 21 24 24 23 22 22 23 24 25 28 30 30 28 27 27 30 32 33 34 34 33 32 30 29 29 29 29 29 30 30 31 31 30 30 30 30 31 31 31 31 30 30 30 29 28 27 25 22 20
1 4 4 3 3 1 4 2 2 3 1 2 3 4 5 5 3 4 5 6 4 3 2 3 5 4 1 2 5 5 4 5 6 7 10 12 14 17 20 21 22 25 27 27 26 25 26 28 29 29 27 27 28 30 32 34 35 35 33 30 28 28 29 29 29 29 29 30 30 31 31 30 29 27 28 29 29 28 28 28 28 27 25 23 21 19 19
5 7 6 4 4 1 3 2 2 5 3 4 5 4 3 3 1 3 5 5 4 4 3 2 4 5 3 4 5 5 4 5 7 10 12 13 13 16 19 19 18 19 23 26 26 26 26 28 29 28 28 28 29 31 33 34 35 34 33 31 28 28 29 29 30 30 30 29 30 30 30 30 29 27 26 25 26 26 26 26 26 25 23 21 19 18 18
4 5 5 4 3 2 1 1 1 3 2 5 6 4 3 2 2 1 3 4 3 1 1 1 3 6 5 5 6 6 5 6 8 11 13 15 17 18 20 20 20 21 23 26 27 28 29 29 28 28 28 29 30 31 33 34 34 34 34 32 29 29 29 29 30 31 30 29 29 29 28 29 29 29 27 24 22 23 24 25 26 25 24 23 22 20 19
2 1 4 4 4 3 1 0 3 4 2 2 4 4 3 3 3 3 3 3 1 3 4 2 2 5 6 5 5 7 6 6 10 14 14 15 17 18 18 20 22 23 25 26 27 28 29 29 29 29 29 29 31 32 34 35 35 34 34 33 31 30 29 29 30 31 30 30 30 29 29 29 29 29 29 26 24 23 23 23 24 24 24 23 23 21 20
2 2 4 4 3 2 2 2 4 5 5 2 4 4 3 3 5 5 5 4 3 0 2 3 3 5 6 7 7 7 7 8 12 16 15 14 15 18 19 22 24 24 25 26 27 29 30 30 30 30 29 30 32 33 34 35 35 34 34 33 32 32 32 31 31 31 30 30 31 30 30 30 30 30 30 29 27 25 22 20 20 21 22 22 22 21 20
4 4 5 5 3 2 2 3 3 1 4 4 5 4 3 3 6 6 5 5 6 6 5 3 6 8 7 9 9 9 9 10 11 12 13 15 17 19 21 23 24 24 26 27 27 29 30 30 30 30 31 31 32 33 34 35 35 34 33 32 31 31 32 33 32 31 30 31 32 31 30 31 31 31 31 29 26 25 23 22 21 20 20 20 20 20 19
4 2 2 3 3 3 2 3 3 2 3 4 4 3 3 4 6 6 6 6 6 6 7 5 6 7 7 8 9 8 8 9 9 9 12 15 17 18 20 22 23 25 26 26 27 29 31 30 30 30 30 32 33 33 34 35 34 33 32 31 29 30 31 32 32 32 31 32 32 32 32 32 32 32 31 30 28 26 25 24 22 21 19 18 18 17 17
3 3 2 2 4 5 5 4 4 5 5 4 4 4 5 6 7 6 5 5 4 4 5 5 3 6 8 9 9 7 6 7 7 9 11 13 14 16 18 20 21 22 22 22 24 27 29 29 30 30 30 32 33 33 34 35 34 33 32 31 30 31 32 32 32 31 31 31 32 33 33 33 32 31 30 29 29 27 26 24 23 21 19 18 17 17 18
2 3 3 2 3 5 6 5 5 5 5 4 5 6 5 6 6 5 4 4 4 3 3 5 3 3 7 8 8 8 7 8 9 10 11 13 14 16 19 20 19 17 17 20 24 27 29 29 29 29 30 32 33 33 34 34 34 34 33 33 33 33 34 33 31 30 29 29 30 31 32 32 31 30 30 29 28 27 26 25 23 21 19 18 18 19 19
3 5 5 4 4 5 5 4 4 4 4 4 5 5 5 6 6 5 4 3 3 3 3 4 4 2 1 4 7 8 8 9 10 11 12 14 16 18 21 23 20 15 13 15 19 24 27 28 28 29 29 31 32 32 33 33 32 32 32 32 31 32 33 33 32 31 30 30 30 30 30 30 29 29 29 28 27 26 25 24 22 21 20 20 20 21 19
6 7 6 5 5 6 5 3 3 3 3 4 5 5 4 4 4 3 3 1 1 2 2 3 4 4 2 3 7 9 9 10 12 13 13 15 16 19 23 25 24 21 18 17 18 19 19 18 19 21 25 29 31 32 32 33 32 31 31 31 30 30 32 32 32 31 31 31 31 31 31 30 29 28 28 28 28 27 25 24 23 23 22 22 23 22 20
7 4 2 1 3 3 1 1 1 2 1 1 2 2 2 3 4 3 1 2 2 1 1 2 3 3 3 5 8 9 10 10 10 11 12 14 17 20 23 24 23 21 20 22 23 23 22 20 18 17 19 24 29 32 33 34 33 32 31 30 29 30 31 32 31 30 30 30 31 32 32 32 31 30 30 30 29 28 26 25 24 24 23 24 24 22 20
6 4 5 6 5 5 4 5 4 3 3 2 1 2 2 1 3 4 4 4 3 2 1 2 3 4 6 7 8 9 9 8 6 6 8 11 14 17 19 19 17 16 16 18 20 24 26 28 27 24 23 25 27 29 30 31 30 29 29 29 29 30 31 31 31 30 29 30 30 30 30 30 30 30 30 30 28 27 25 25 25 24 24 24 24 23 21
3 3 2 4 5 5 5 6 6 5 5 4 2 3 2 2 3 4 4 4 4 4 4 5 6 7 8 9 9 8 7 6 5 6 7 8 11 13 15 15 14 14 14 15 17 20 24 27 28 27 25 26 27 27 26 26 26 27 28 29 29 30 31 32 31 31 30 30 29 29 29 29 28 28 29 28 27 26 25 25 25 24 24 25 24 23 22
3 4 3 2 2 3 3 4 5 5 6 5 4 3 2 2 4 5 5 6 7 7 7 8 8 8 8 8 8 7 7 7 7 8 8 8 10 12 13 13 13 13 13 13 15 17 20 24 27 26 25 26 28 29 29 29 29 28 28 28 29 30 31 32 31 30 30 30 29 29 28 28 27 27 28 28 27 26 25 25 25 25 25 24 24 23 22
3 4 4 3 3 4 2 3 5 7 6 4 3 3 3 4 6 7 9 10 10 9 8 8 8 8 8 7 8 8 7 7 8 9 9 10 11 13 13 13 13 12 11 11 14 17 19 22 25 24 24 26 28 29 30 31 30 28 28 29 30 31 31 31 29 28 28 28 28 28 27 27 26 26 27 27 26 25 26 26 26 25 24 23 22 22 23
4 4 5 5 5 5 4 3 6 8 7 5 3 2 4 7 9 10 10 11 11 9 9 9 10 11 10 9 8 8 7 7 7 8 9 10 11 12 12 12 13 13 11 11 13 17 19 20 22 23 24 25 27 28 29 30 30 29 29 30 31 31 32 31 30 28 27 27 26 26 26 26 26 26 26 26 25 25 26 27 26 25 25 24 23 23 23
5 5 6 6 6 6 6 5 5 5 5 5 4 4 6 10 11 11 11 10 10 9 10 12 12 11 10 9 8 7 6 6 6 7 8 8 9 10 9 9 11 12 11 10 11 14 17 19 20 22 23 25 26 27 29 30 30 30 30 30 31 31 32 32 31 29 27 26 25 25 25 25 25 26 25 25 25 26 27 27 26 26 27 26 26 26 25
4 4 4 5 5 5 5 5 5 4 3 4 5 6 9 11 12 12 11 10 9 8 9 10 9 7 7 7 7 7 7 7 6 6 7 8 8 7 6 5 7 9 10 9 10 12 16 18 20 22 23 24 25 27 29 30 31 31 30 30 30 30 30 31 31 29 28 26 26 25 25 24 24 25 25 24 25 27 27 26 25 26 26 26 26 26 25
3 2 2 4 5 5 5 6 6 5 4 3 5 7 10 11 11 10 10 10 9 8 7 6 4 3 4 5 6 7 8 7 7 7 8 8 8 7 5 5 6 8 8 9 10 12 15 18 20 21 22 23 24 26 28 30 31 31 31 31 30 30 30 31 31 29 28 27 26 26 25 24 24 24 24 24 24 25 24 23 23 24 24 25 25 24 23
3 3 3 4 4 4 5 7 7 5 4 4 5 7 8 8 8 8 10 10 9 8 6 3 2 2 3 3 4 6 7 7 8 9 8 7 7 6 5 5 6 8 8 9 11 12 15 18 19 20 21 23 24 25 27 30 31 31 30 30 30 30 31 31 31 29 27 26 26 25 25 24 24 24 24 24 23 22 21 20 20 21 23 25 25 24 22
4 5 4 4 3 4 5 6 6 6 5 5 6 6 6 6 6 7 9 9 8 7 6 5 2 1 3 3 4 5 7 7 8 9 7 5 5 5 4 4 6 8 9 10 11 12 15 18 20 20 21 22 24 24 26 29 31 30 30 29 29 30 30 30 28 27 26 26 25 24 22 22 23 24 24 24 22 20 19 18 19 21 23 24 23 22 22
5 5 5 5 5 5 5 6 6 5 5 6 6 7 7 6 6 7 8 8 7 6 7 6 5 4 4 5 5 6 7 7 8 9 8 5 4 6 6 4 5 8 10 10 11 12 15 18 20 20 20 22 23 23 25 28 30 30 29 29 29 29 28 28 26 26 26 26 25 23 21 21 22 23 23 22 20 19 18 18 20 23 24 24 23 23 23
7 7 7 8 7 7 7 7 6 5 6 7 7 7 7 6 6 7 8 8 7 6 7 7 7 6 7 7 6 5 5 6 8 9 8 4 3 6 7 7 7 9 10 10 10 11 14 17 19 19 20 20 21 22 25 28 29 28 28 28 28 27 26 26 25 25 25 25 25 22 20 20 22 23 22 20 19 19 19 20 22 23 24 24 25 25 24
5 7 9 9 9 9 8 7 5 5 6 6 5 5 6 7 7 8 9 9 8 6 5 5 6 6 6 7 6 5 4 4 6 8 8 6 3 3 5 7 8 9 10 11 11 11 13 16 18 19 19 20 20 21 24 27 28 27 27 27 27 26 25 25 24 24 24 25 26 24 21 22 24 24 22 20 20 20 21 22 23 22 22 23 23 24 23
3 6 9 9 8 7 6 4 4 5 6 5 4 5 7 8 7 8 9 9 8 7 5 4 5 6 6 6 6 5 3 3 3 6 9 9 6 3 3 6 9 10 11 11 11 11 12 15 17 18 19 19 20 21 24 26 27 28 27 26 26 26 25 24 25 25 25 26 27 25 22 22 22 22 20 20 21 22 23 23 21 20 20 21 22 22 23
3 2 5 7 8 7 7 7 6 6 5 6 8 8 8 7 7 7 8 9 10 8 5 3 4 5 6 6 5 5 4 1 1 0 4 8 8 6 5 6 8 9 11 11 11 10 11 13 16 18 19 20 20 22 23 25 26 27 27 27 26 25 24 24 25 25 26 28 28 26 23 22 22 21 21 22 23 24 23 22 21 20 21 21 21 21 20
9 8 6 3 3 3 3 4 4 1 3 8 9 8 7 6 6 5 7 9 10 10 7 5 4 5 5 4 4 4 4 3 1 1 1 3 7 7 6 6 7 8 10 11 12 12 12 12 14 16 18 20 21 22 23 23 24 25 26 25 25 25 24 24 25 25 26 27 28 26 25 24 23 22 22 21 22 23 23 23 23 23 23 23 22 20 19
15 16 14 12 12 12 11 8 6 8 9 7 6 6 5 5 6 7 8 9 10 10 9 8 8 7 6 6 5 4 4 4 4 3 1 1 4 6 7 7 7 8 9 10 11 12 13 13 14 15 17 19 21 23 23 23 24 24 24 24 24 23 22 22 22 23 24 25 26 26 25 24 23 22 21 21 21 23 24 25 26 26 26 26 26 25 23
17 16 14 13 14 17 18 17 16 16 17 15 10 6 5 6 7 8 8 8 8 8 8 8 8 8 7 6 6 6 5 4 5 5 4 2 2 3 5 7 8 8 9 9 10 11 13 14 15 16 17 19 20 22 23 24 24 24 24 24 23 21 21 21 21 22 23 23 24 24 24 23 23 22 22 22 23 23 25 26 27 28 28 28 28 28 26
21 21 19 18 18 19 22 25 26 25 25 23 19 12 6 6 7 6 5 5 6 6 6 7 7 6 6 6 6 7 7 6 6 6 6 6 4 3 4 6 7 9 10 11 11 11 12 13 15 16 17 18 19 20 21 23 24 24 24 24 24 23 22 22 22 21 22 22 22 23 23 23 23 23 23 23 23 23 24 25 26 26 26 26 27 27 28
Wind_Direction
255 231 223 201 174 178 187 185 190 190 169 163 175 194 199 165 164 221 231 181 196 240 246 226 214 196 188 185 169 153 145 149 154 155 158 159 157 160 163 163 163 164 166 168 169 170 170 170 170 170 169 169 171 172 171 168 168 170 171 172 173 175 176 174 174 174 175 175 175 174 173 171 170 168 166 164 162 161 164 169 169 167 168 170 169 167 166
276 247 216 208 182 169 180 190 188 179 174 180 185 197 197 177 194 231 204 185 214 235 234 225 209 169 130 125 131 136 143 151 158 160 163 165 164 166 168 169 170 169 168 168 169 168 169 169 170 170 170 169 170 172 172 169 167 169 172 172 173 175 175 175 176 176 175 175 174 173 172 171 169 167 165 163 161 161 162 166 165 163 163 166 167 167 165
286 311 153 201 189 170 176 194 190 174 173 180 180 172 170 177 226 248 164 180 234 253 233 202 168 131 123 139 154 157 158 162 162 163 166 169 170 172 173 173 173 172 170 168 168 170 172 172 171 172 173 171 171 172 173 171 169 170 173 174 174 175 175 176 177 176 175 174 173 172 172 169 167 167 166 163 161 161 162 163 162 161 161 162 164 166 165
281 334 66 164 169 149 156 179 188 175 168 173 174 169 177 182 182 149 128 170 239 257 215 150 150 149 148 158 167 166 166 166 164 166 172 174 175 176 175 174 174 174 172 171 173 175 174 173 174 175 174 171 170 172 174 175 173 172 174 175 174 174 174 174 176 176 175 173 170 170 170 168 168 169 168 164 161 162 163 163 162 161 162 161 162 164 164
272 320 31 102 112 110 158 203 189 179 167 155 153 183 212 193 160 140 157 206 235 222 165 148 162 170 169 176 179 173 168 167 169 175 176 177 179 178 177 177 176 176 176 175 175 175 175 176 178 177 175 173 174 176 178 178 176 174 175 176 174 173 172 173 175 175 173 171 170 171 172 172 172 171 169 165 162 164 164 163 162 162 163 162 161 162 164
267 321 8 59 110 145 229 235 183 175 169 154 157 188 222 206 185 174 200 232 237 194 174 175 180 181 181 184 182 172 164 166 174 181 181 181 182 179 178 179 178 178 176 174 174 176 178 180 178 177 177 177 178 179 179 177 175 174 175 174 174 173 172 173 174 174 172 171 171 173 174 173 172 171 169 166 163 165 165 162 162 163 164 164 162 163 165
266 344 37 100 170 217 247 286 237 187 181 159 155 175 234 213 216 247 253 244 226 206 208 190 167 160 126 112 144 163 171 174 173 177 182 182 179 179 180 179 178 176 172 172 175 178 179 179 176 175 176 176 176 176 176 176 175 174 172 170 171 172 171 172 173 172 172 172 172 174 173 172 172 170 169 166 164 165 165 162 162 162 162 163 163 164 167
208 12 63 155 217 253 291 341 334 137 105 126 131 98 282 239 209 208 234 242 203 174 264 229 129 126 100 90 115 163 175 180 179 179 183 182 180 183 183 180 179 178 177 177 178 178 177 176 174 173 174 175 174 173 175 176 174 173 171 168 169 170 170 172 173 173 173 172 172 173 172 171 171 170 168 166 165 163 160 158 159 160 159 160 161 161 166
139 135 207 240 287 323 346 338 254 148 145 167 154 159 259 254 209 193 230 261 140 138 171 157 133 119 93 77 157 196 180 182 188 188 186 184 184 184 181 180 180 179 179 178 175 174 173 173 173 173 173 174 172 171 172 173 172 171 170 169 170 171 172 173 174 174 174 174 173 172 172 171 171 170 168 166 163 160 157 155 157 158 156 155 156 157 158
109 112 102 356 41 340 251 248 266 241 192 203 171 150 232 261 231 203 217 226 148 139 147 156 144 110 88 121 241 212 185 181 180 179 177 176 178 172 166 167 170 173 175 173 172 172 171 172 174 173 173 173 171 168 169 171 171 170 170 172 173 173 174 175 175 176 177 177 174 172 172 173 171 170 168 166 162 160 158 155 154 154 152 150 150 150 150
76 109 115 122 129 203 239 246 270 273 210 191 147 136 245 265 239 199 195 197 177 154 151 163 150 115 126 237 247 200 179 178 171 167 165 162 167 170 169 169 169 170 171 170 170 171 170 171 173 173 173 173 170 168 170 171 171 172 174 176 176 176 176 176 176 177 178 178 176 175 175 175 174 172 170 166 163 160 157 155 153 153 152 150 148 146 145
155 110 96 222 215 223 245 256 278 290 141 121 120 170 251 261 237 198 180 186 186 161 148 160 158 145 175 233 251 183 167 168 168 168 166 164 164 165 168 170 169 168 167 166 167 170 172 172 173 173 173 172 170 171 172 172 174 177 179 179 177 177 177 176 177 178 179 180 180 180 179 178 176 175 173 169 164 161 158 157 157 157 155 151 148 145 144
136 118 95 265 251 247 252 266 279 289 80 82 111 200 233 249 249 218 178 176 183 163 155 167 181 181 193 247 243 151 149 153 164 164 157 159 162 162 165 167 167 166 168 169 171 173 174 172 172 173 173 172 172 173 172 174 179 182 180 178 177 177 177 177 178 180 181 183 183 183 182 180 178 178 177 175 170 167 166 165 165 164 162 158 154 151 150
118 130 103 3 279 253 249 267 277 273 102 118 200 223 227 219 257 232 170 176 183 168 170 187 195 189 163 58 91 129 140 147 152 148 144 149 155 160 163 165 166 164 166 170 171 172 173 172 172 173 173 173 173 172 173 180 183 180 177 176 177 177 177 178 180 180 182 183 184 183 183 182 180 180 180 180 177 174 174 175 174 174 171 168 165 164 164
116 69 56 54 223 230 253 286 340 48 122 200 217 243 275 255 245 204 160 185 192 179 188 208 214 215 36 59 93 125 136 139 141 147 153 153 153 157 160 163 166 165 165 169 170 170 172 173 173 175 175 173 172 173 178 183 181 177 177 177 176 177 178 179 180 181 182 183 182 182 183 184 184 183 183 183 182 181 180 180 181 182 181 179 179 181 183
121 94 115 211 209 235 263 259 156 199 233 208 180 163 329 310 255 188 152 188 199 194 201 216 223 269 355 66 105 124 130 137 143 149 154 154 156 161 162 165 168 167 166 168 168 168 171 173 174 177 176 173 172 176 181 180 176 175 176 175 175 176 178 179 180 181 182 182 182 184 185 185 186 185 185 185 185 185 184 185 189 191 190 190 191 193 197
167 178 215 236 242 255 271 234 195 232 264 228 173 161 52 1 316 268 38 30 208 198 199 215 233 237 208 134 128 137 145 153 156 155 158 161 160 162 165 168 171 170 167 165 163 164 170 173 175 178 178 175 174 178 179 177 175 175 175 174 175 176 177 178 180 181 182 182 183 185 186 187 187 186 185 185 186 187 187 190 196 198 196 197 199 201 206
237 222 239 277 307 306 309 298 233 223 243 202 161 116 67 20 293 282 323 311 274 197 165 190 233 214 180 150 140 149 153 154 153 148 150 156 159 161 164 167 169 166 162 160 159 159 166 172 174 176 179 180 179 179 178 177 177 176 174 173 175 176 177 179 180 180 180 180 183 186 187 188 190 189 187 187 187 188 190 195 199 201 200 201 204 207 212
88 229 265 298 312 296 307 323 323 18 42 30 59 82 88 159 220 237 230 234 288 116 155 199 258 248 168 152 152 154 149 150 155 152 147 150 157 162 164 163 163 161 158 158 158 157 161 170 173 175 180 184 183 180 177 176 176 175 173 174 175 175 176 178 179 180 180 180 182 184 185 186 188 189 191 191 189 189 192 197 200 203 203 203 206 211 215
123 234 255 274 286 277 281 295 327 19 21 13 14 40 94 132 122 91 117 129 111 119 168 188 262 360 81 139 147 148 149 153 154 151 150 151 152 156 159 161 161 159 156 157 158 159 163 169 174 177 180 183 181 178 175 175 175 173 173 175 175 176 176 177 178 180 181 181 182 183 185 186 187 189 191 192 193 195 199 201 201 200 202 205 208 212 216
37 257 259 278 324 319 312 305 241 277 329 6 9 30 78 92 87 67 38 26 80 140 148 141 114 67 33 118 138 138 143 150 152 151 151 153 153 156 160 162 162 159 158 161 162 163 167 171 174 177 178 178 179 178 176 175 174 173 173 175 175 175 176 177 178 179 181 183 184 185 185 186 190 194 197 198 200 203 206 205 202 200 201 205 209 214 219
160 233 231 180 141 247 276 272 316 324 341 66 38 38 54 55 75 98 72 36 26 58 102 127 120 107 97 127 123 126 139 147 148 150 150 150 153 156 159 163 166 165 165 166 166 167 170 172 174 175 175 176 179 178 177 176 175 174 173 172 172 174 175 176 178 180 182 184 186 186 186 186 188 194 199 203 206 207 206 206 204 204 205 208 212 217 223
222 238 225 174 131 167 242 242 329 342 19 79 69 50 38 15 359 131 113 82 41 15 10 83 125 135 153 147 126 118 125 136 141 147 151 150 149 153 157 159 161 162 162 162 164 166 170 173 174 174 175 176 177 177 177 177 177 176 173 171 171 175 177 179 182 183 184 185 185 185 186 187 187 189 193 198 204 207 207 207 209 211 216 220 224 228 232
249 251 208 169 118 102 178 189 21 2 45 95 84 59 28 360 347 58 117 119 127 139 334 343 147 147 148 147 139 131 128 134 138 142 149 151 151 155 159 159 159 161 163 165 167 169 170 172 173 173 174 176 177 177 178 178 179 178 176 174 174 177 180 182 184 185 185 185 184 185 185 186 188 190 190 190 197 206 210 212 216 221 224 228 232 236 240
277 266 174 160 134 128 162 93 57 32 21 105 98 59 38 42 42 52 69 65 103 174 170 172 165 152 146 143 141 138 134 139 144 143 144 148 151 155 160 164 166 169 169 169 170 169 169 172 173 173 175 177 178 179 180 180 180 180 180 179 180 180 181 182 183 184 185 185 184 184 185 185 187 190 191 191 195 203 209 213 219 225 230 233 236 238 240
229 168 131 117 93 63 33 57 63 20 357 51 99 68 37 66 74 71 67 46 9 305 172 160 142 139 144 143 136 131 128 135 145 147 145 147 155 163 170 174 174 173 171 170 170 170 171 172 174 174 176 178 181 182 182 181 182 183 184 184 184 183 183 183 183 184 185 185 185 186 187 187 189 191 195 197 199 201 202 205 213 222 228 233 235 238 242
207 171 117 91 51 6 38 101 123 25 357 51 87 72 37 70 84 76 60 45 31 24 29 89 125 124 126 131 129 128 133 138 144 150 154 162 172 177 178 177 174 172 170 170 171 172 173 174 175 178 180 183 185 185 184 183 184 185 185 184 184 184 185 185 184 184 186 187 187 187 187 188 190 193 197 200 201 203 204 206 210 215 221 226 233 238 241
208 218 114 126 184 208 185 156 144 101 47 47 69 72 54 55 61 57 41 21 8 15 25 52 111 126 130 132 129 128 135 142 151 165 174 178 181 179 176 175 174 173 172 172 173 175 175 176 178 181 184 186 187 187 186 185 184 184 183 183 183 184 185 186 186 187 188 189 188 189 189 191 193 196 200 202 203 206 210 213 215 217 220 225 231 233 231
234 287 331 162 175 164 136 117 95 72 54 44 48 49 53 56 49 40 27 3 350 4 13 13 65 129 141 145 143 142 148 159 171 180 180 178 175 173 173 173 171 170 171 171 173 175 177 179 182 184 187 189 189 188 187 186 184 184 184 183 184 185 185 187 189 189 189 190 190 191 192 193 194 195 199 202 203 205 209 214 218 220 223 227 228 224 222
296 360 40 92 113 118 118 107 83 62 49 57 61 47 49 71 63 35 14 4 7 17 1 348 6 126 149 156 155 156 163 170 174 173 170 168 168 169 169 165 159 161 169 175 178 180 182 184 187 190 191 191 190 189 188 187 186 187 186 186 188 189 188 188 189 189 189 189 190 191 192 193 193 195 197 200 202 204 208 212 217 221 224 227 225 222 223
67 50 61 58 62 89 102 90 81 68 39 50 75 64 52 68 62 27 14 25 18 2 6 14 18 23 137 159 155 155 157 160 162 164 165 167 169 170 169 167 164 163 169 179 185 187 188 190 193 196 196 193 191 190 189 187 186 186 186 186 189 191 191 190 190 190 189 189 189 191 192 193 194 196 197 198 201 204 207 211 216 220 224 225 225 226 230
79 54 50 38 41 67 76 63 83 87 38 48 92 104 93 94 84 31 9 57 76 340 9 41 31 11 22 126 145 149 148 149 154 160 164 168 171 173 175 178 178 176 176 183 193 197 195 195 198 200 200 197 194 192 191 189 187 186 186 187 188 189 190 190 190 189 190 190 189 190 192 193 195 197 199 200 203 205 207 211 216 221 225 227 229 231 235
105 79 64 63 70 82 107 252 170 141 140 87 119 157 192 146 119 106 128 147 136 49 22 51 45 40 78 122 136 139 137 138 145 156 165 171 175 180 184 186 186 185 187 191 195 197 197 201 205 207 205 200 197 196 195 193 191 188 187 186 186 187 188 189 189 189 189 189 190 191 193 194 196 198 200 204 206 207 209 213 218 224 228 231 233 236 240
138 166 200 195 165 154 190 211 201 186 197 225 274 286 273 165 124 131 144 140 126 133 152 117 89 90 106 116 120 125 128 129 137 161 175 179 181 185 188 190 191 194 196 196 196 197 199 204 208 211 210 207 202 198 194 191 188 186 186 185 185 186 186 187 188 189 189 189 191 193 194 194 196 198 202 204 205 207 211 216 221 226 230 234 237 241 245
110 125 188 193 170 163 175 184 181 176 170 175 225 267 247 160 131 126 123 121 131 150 149 125 111 110 113 114 115 119 123 130 147 166 178 184 185 187 188 189 191 194 195 198 203 204 204 206 208 209 208 204 199 194 191 189 189 189 188 187 186 187 187 187 188 191 192 192 192 193 193 195 198 201 204 206 206 208 214 219 224 229 233 237 242 247 250
97 113 105 104 138 154 172 174 165 161 163 170 188 203 182 144 128 121 117 121 131 138 135 125 117 109 104 107 116 123 127 137 151 160 167 176 182 184 184 186 189 188 189 199 208 209 206 206 207 207 204 200 196 195 196 197 196 195 192 188 188 188 188 187 188 191 194 194 194 195 196 198 202 205 207 208 208 210 216 222 226 230 235 241 247 252 255
69 119 119 103 103 116 140 165 156 149 150 160 174 170 153 138 129 126 127 131 135 138 136 129 118 106 99 102 109 115 121 131 143 152 160 168 174 177 179 182 185 184 189 203 209 206 203 204 205 205 203 200 198 197 198 197 196 194 192 190 190 189 187 186 186 189 192 194 196 196 196 199 203 206 209 210 211 214 220 225 228 232 238 245 251 255 257
60 86 102 105 103 97 95 131 151 145 134 117 95 104 132 136 132 129 129 134 140 142 139 129 119 113 110 106 101 101 111 125 136 144 151 161 170 175 178 184 188 189 196 209 208 200 198 200 200 200 201 201 200 199 199 198 196 194 193 192 191 190 188 186 185 186 189 192 194 196 197 201 205 208 210 212 215 220 225 228 231 235 241 248 254 258 260
74 78 88 97 99 93 88 98 121 135 136 127 112 107 124 134 135 132 131 135 142 145 138 127 119 114 113 111 108 113 123 131 138 144 149 158 171 178 184 197 205 206 210 217 210 200 198 198 197 198 200 201 200 199 199 198 197 195 194 193 193 191 189 186 184 184 187 190 194 199 203 206 210 212 213 214 218 223 228 231 234 239 245 250 256 259 260
98 94 91 97 103 102 97 92 87 90 119 138 137 134 138 140 136 133 134 140 149 151 142 128 117 118 127 129 131 137 141 143 150 156 155 155 160 165 174 198 213 214 218 222 215 206 203 200 197 197 199 199 199 198 198 197 197 196 195 194 193 191 189 186 185 185 187 191 196 203 208 211 213 216 218 220 222 225 229 232 236 240 245 250 253 255 257
97 83 85 100 106 106 103 100 91 80 84 116 136 142 146 148 144 142 146 150 153 157 154 136 112 114 137 138 137 144 150 154 161 165 164 158 155 154 164 192 204 205 211 215 211 208 205 202 200 199 198 197 198 201 199 196 195 195 194 194 193 191 188 187 186 187 189 193 199 206 212 215 216 217 219 221 224 227 230 233 237 242 246 249 251 253 256
121 112 105 99 98 103 112 117 113 103 102 128 141 144 152 157 154 151 154 157 158 165 175 172 116 93 125 134 137 148 157 164 170 173 174 174 172 172 185 206 202 195 197 204 206 205 204 203 203 203 202 200 202 203 200 196 194 194 194 194 193 191 190 189 188 189 192 195 202 209 215 218 220 221 221 223 225 228 231 236 242 249 253 253 253 253 255
156 146 142 139 136 134 131 129 126 128 141 157 158 160 169 174 164 153 156 160 165 176 187 191 187 160 159 160 159 162 169 178 181 179 180 189 201 204 211 218 208 199 198 203 206 205 203 203 204 205 205 205 204 203 199 196 194 195 195 194 193 192 191 190 189 190 192 196 203 212 218 220 222 223 222 223 225 228 232 239 248 254 257 255 253 252 255
170 164 163 164 156 141 136 133 131 138 160 175 177 181 190 194 186 173 167 166 176 199 210 210 208 204 195 192 190 189 192 196 192 184 178 184 216 227 224 215 205 202 202 205 209 207 203 203 205 205 206 207 205 201 198 195 194 194 195 194 193 192 192 191 191 192 193 197 205 214 221 223 224 224 223 224 227 230 234 242 252 257 256 254 253 254 257
181 180 172 161 155 158 164 164 162 172 184 182 177 187 201 205 203 197 189 182 187 207 221 223 223 223 218 213 213 218 225 222 208 195 184 181 220 235 223 206 196 196 199 203 208 208 204 204 205 205 205 206 204 200 197 195 194 194 194 193 192 192 192 192 193 194 196 201 208 216 225 230 231 230 229 231 235 237 241 250 258 260 257 255 256 258 262
197 182 170 166 172 183 186 180 176 181 177 164 164 195 215 217 217 217 213 206 205 217 236 243 240 239 236 228 223 226 234 233 223 215 209 207 220 235 216 199 193 192 193 196 202 205 204 204 205 205 205 205 203 200 198 197 195 194 194 194 194 195 196 197 197 199 203 208 213 219 228 236 238 237 238 241 244 246 251 257 261 260 259 259 261 264 267
212 178 175 181 188 189 182 172 161 154 148 145 165 207 217 220 226 230 227 225 229 244 267 275 264 256 249 238 229 224 220 223 232 229 223 219 217 205 180 183 187 189 191 195 198 200 201 203 204 205 205 205 203 201 201 200 198 197 198 198 199 201 202 203 204 205 209 214 217 223 232 239 242 244 247 248 248 250 254 258 260 259 259 262 265 267 269
316 253 208 192 181 172 170 166 156 151 167 189 200 205 209 216 224 228 225 226 234 245 259 280 287 278 264 250 242 240 239 251 3 322 210 209 207 194 170 169 180 188 194 198 200 200 201 204 206 206 205 204 203 203 204 204 203 204 205 207 209 211 213 213 213 212 213 214 218 226 236 243 245 248 251 250 249 252 255 256 255 255 258 264 268 269 267
36 30 29 55 94 101 125 150 151 173 237 225 217 213 211 211 218 228 229 229 237 245 248 248 263 279 283 276 264 253 246 247 290 23 98 180 194 194 186 176 178 186 194 201 205 205 204 204 207 208 208 208 207 207 208 208 209 210 213 216 219 221 223 223 222 220 217 217 222 230 240 244 247 251 253 252 253 255 257 256 255 256 260 266 271 270 266
52 51 43 39 42 44 43 38 19 357 346 326 287 262 234 203 205 225 236 236 239 247 250 249 250 262 278 291 295 293 275 252 250 267 308 136 177 194 199 197 193 194 198 203 207 208 208 207 207 209 211 212 213 214 214 215 216 218 220 223 225 226 227 227 226 224 223 225 231 238 243 247 250 254 256 256 257 258 258 258 259 261 264 267 269 267 266
50 52 44 40 45 49 46 39 28 20 17 11 357 318 270 247 241 242 244 244 245 252 259 261 257 256 262 273 285 296 300 285 267 265 271 262 205 194 203 209 212 214 214 212 210 211 212 213 213 213 214 215 218 219 220 221 223 224 225 226 228 228 228 228 228 229 232 236 241 245 248 251 253 254 256 258 259 260 260 261 263 265 266 267 267 266 265
50 50 46 42 40 41 40 36 31 27 25 25 24 21 2 322 314 321 327 320 306 298 293 289 281 277 277 275 273 278 287 290 285 279 275 272 266 247 226 221 224 228 229 228 225 222 220 219 219 220 220 220 221 223 225 225 226 228 229 230 230 230 230 231 234 238 241 244 247 249 251 252 253 255 258 261 263 264 265 267 269 270 270 269 267 265 264